sat.trackr.live / text

‹ back to catalog

STARLINK-32698

NORAD 62312 · 2024-239M

PAYLOAD ACTIVE UNKNOWN

§ Identity

Operator
Country
US
Launch date
2024-12-13
Launch site
AFWTR
Launch vehicle
Mass (kg)
RCS (m²)

Purposes: comms

External: N2YO · Heavens-Above · Gunter

§ Orbital elements

Epoch: 2026-09-21T18:16:43.832352Z

Period
93.85 min
Inclination
53.1604°
Eccentricity
0.0001020
Mean motion
15.34410973 rev/d
Perigee alt
462.0 km
Apogee alt
463.4 km
Semi-major
6,840.8 km
B*
9.1943e-4
RAAN
359.6292°
Arg perigee
88.9904°
Mean anomaly
271.1216°
Rev number
9,945

§ Raw data

STARLINK-326981 62312U 24239M   26264.76161843  .00030827  00000+0  91943-3 0  99982 62312  53.1604 359.6292 0001020  88.9904 271.1216 15.34410973 99456

JSON: /api/v1/satellites/62312 · /tle

For live sub-satellite position, see the globe view (requires WebGL).

§ Visibility from observer

Set your observer location to see the next 7 days of passes ≥ 10°. The values pass through the URL so the page stays shareable.

No JS? Fill the form by hand. The geolocation button needs JavaScript.